Regional Weather Roundup
Issued by NWS

Home | Current Version | Previous Version | Graphics & Text | Print | Product List | Glossary On
Versions: 1 2 3 4 5 6 7 8 9 10 11 12 13 14 15 16 17 18 19 20 21 22 23 24 25 26 27 28 29 30 31 32 33 34 35 36 37 38 39 40 41 42 43 44 45 46 47 48 49 50
000
ASUS44 KMEG 270900
RWRTN
TENNESSEE HOURLY STATE WEATHER ROUNDUP
NATIONAL WEATHER SERVICE MEMPHIS TN
300 AM CST THU NOV 27 2014

TNZ002-004-019-021-049-052-054-088>092-271000-
WEST TENNESSEE

CITY           SKY/WX    TMP DP  RH WIND       PRES   REMARKS
MEMPHIS INTL   MOCLDY    40  29  64 NW12G22   30.29R WCI  33
NWS MEMPHIS      N/A     39 N/A N/A MISG        N/A
JACKSON        CLOUDY    40  33  76 NW13      30.25R WCI  32
DYERSBURG      CLOUDY    39  23  52 NW14G23   30.29R WCI  31
UNION CITY     CLOUDY    36  30  80 NW15      30.24R WCI  26
PARIS          CLOUDY    34  32  93 NW9       30.21R WCI  26
LEXINGTON      CLOUDY    39  30  70 NW7       30.20R WCI  34
SAVANNAH       MOCLDY    37  34  87 NW6       30.23R WCI  33
$$

TNZ008-025-027-028-033-062-065-066-271000-
NORTH MIDDLE TENNESSEE

CITY           SKY/WX    TMP DP  RH WIND       PRES   REMARKS
NASHVILLE      CLOUDY    40  34  79 NW9       30.15R WCI  34
CLARKSVILLE    CLOUDY    36  32  85 NW15      30.18R WCI  27
COOKEVILLE     CLOUDY    37  34  87 W10       30.08R WCI  30
CROSSVILLE     CLOUDY    36  31  82 W10       30.04R WCI  28
$$

TNZ061-075-076-078-094-096-097-271000-
SOUTH MIDDLE TENNESSEE

CITY           SKY/WX    TMP DP  RH WIND       PRES   REMARKS
TULLAHOMA      CLOUDY    37  32  81 W12       30.13R WCI  30
WINCHESTER     CLOUDY    37  34  87 W8        30.14R WCI  31
SHELBYVILLE    CLOUDY    39  36  87 SW7       30.15R WCI  34
$$

TNZ017-018-042-046-047-271000-
NORTHEAST TENNESSEE

CITY           SKY/WX    TMP DP  RH WIND       PRES   REMARKS
TRI CITIES     LGT SNOW  33  33 100 SW5       30.00R FOG     WCI  29
ELIZABETHTON   RAIN      34  32  93 W8        29.98R WCI  27
$$

TNZ012-013-036-069-073-074-271000-
CENTRAL EAST TENNESSEE

CITY           SKY/WX    TMP DP  RH WIND       PRES   REMARKS
KNOXVILLE      CLOUDY    40  35  83 SW14      30.05R WCI  32
OAK RIDGE      CLOUDY    40  34  79 W9G17     30.05R WCI  34
GATLINBURG     CLOUDY    37  34  87 CALM      30.03R
$$

TNZ083-085-099-271000-
SOUTHEAST TENNESSEE

CITY           SKY/WX    TMP DP  RH WIND       PRES   REMARKS
CHATTANOOGA    CLOUDY    42  31  64 NW15G21   30.12R
$$

SKY/WX REPORTED AS FAIR MEANS FEW OR NO CLOUDS BELOW
12 THOUSAND FEET.




USA.gov is the U.S. government's official web portal to all federal, state and local government web resources and services.